Time,TemperatureF,DewpointF,PressureIn,WindDirection,WindDirectionDegrees,WindSpeedMPH,WindSpeedGustMPH,Humidity,HourlyPrecipIn,Conditions,Clouds,dailyrainin,SolarRadiationWatts/m^2,SoftwareType,DateUTC
2013-10-07 00:03:00,40.0,36.0,-100.00,SSW,200,3.0,10.0,85,0.00,,,0.07,0.000000,,2013-10-07 08:03:00,
2013-10-07 00:11:00,40.0,36.0,-100.00,SSW,200,3.0,10.0,85,0.00,,,0.07,0.000000,,2013-10-07 08:11:00,
2013-10-07 00:21:00,40.0,36.0,-100.00,SSW,200,3.0,10.0,85,0.00,,,0.07,0.000000,,2013-10-07 08:21:00,
2013-10-07 00:52:00,40.0,36.0,-100.00,SSW,193,3.0,8.0,85,0.00,,,0.07,0.000000,,2013-10-07 08:52:00,
2013-10-07 01:02:00,40.0,36.0,-100.00,SSW,193,3.0,8.0,85,0.00,,,0.07,0.000000,,2013-10-07 09:02:00,
2013-10-07 01:11:00,40.0,36.0,-100.00,SSW,193,3.0,8.0,85,0.00,,,0.07,0.000000,,2013-10-07 09:11:00,
2013-10-07 01:21:00,40.0,36.0,-100.00,SSW,193,3.0,8.0,85,0.00,,,0.07,0.000000,,2013-10-07 09:21:00,
2013-10-07 01:54:00,39.0,36.0,-100.00,SSW,199,1.0,5.0,89,0.00,,,0.07,0.000000,,2013-10-07 09:54:00,
2013-10-07 02:03:00,39.0,36.0,-100.00,SSW,199,1.0,5.0,89,0.00,,,0.07,0.000000,,2013-10-07 10:03:00,
2013-10-07 02:13:00,39.0,36.0,-100.00,SSW,199,1.0,5.0,89,0.00,,,0.07,0.000000,,2013-10-07 10:13:00,
2013-10-07 02:23:00,39.0,36.0,-100.00,SSW,199,1.0,5.0,89,0.00,,,0.07,0.000000,,2013-10-07 10:23:00,
2013-10-07 02:53:00,38.0,36.0,-100.00,ESE,123,0.0,3.0,91,0.00,,,0.07,0.000000,,2013-10-07 10:53:00,
2013-10-07 03:02:00,38.0,36.0,-100.00,ESE,123,0.0,3.0,91,0.00,,,0.07,0.000000,,2013-10-07 11:02:00,
2013-10-07 03:12:00,38.0,36.0,-100.00,ESE,123,0.0,3.0,91,0.00,,,0.07,0.000000,,2013-10-07 11:12:00,
2013-10-07 03:22:00,38.0,36.0,-100.00,ESE,123,0.0,3.0,91,0.00,,,0.07,0.000000,,2013-10-07 11:22:00,
2013-10-07 03:52:00,38.0,36.0,-100.00,South,180,2.0,4.0,92,0.00,,,0.07,0.000000,,2013-10-07 11:52:00,
2013-10-07 04:02:00,38.0,36.0,-100.00,South,180,2.0,4.0,92,0.00,,,0.07,0.000000,,2013-10-07 12:02:00,
2013-10-07 04:12:00,38.0,36.0,-100.00,South,180,2.0,4.0,92,0.00,,,0.07,0.000000,,2013-10-07 12:12:00,
2013-10-07 04:21:00,38.0,36.0,-100.00,South,180,2.0,4.0,92,0.00,,,0.07,0.000000,,2013-10-07 12:21:00,
2013-10-07 04:52:00,37.0,35.0,-100.00,South,182,2.0,5.0,93,0.00,,,0.07,0.000000,,2013-10-07 12:52:00,
2013-10-07 05:01:00,37.0,35.0,-100.00,South,182,2.0,5.0,93,0.00,,,0.07,0.000000,,2013-10-07 13:01:00,
2013-10-07 05:11:00,37.0,35.0,-100.00,South,182,2.0,5.0,93,0.00,,,0.07,0.000000,,2013-10-07 13:11:00,
2013-10-07 05:21:00,37.0,35.0,-100.00,South,182,2.0,5.0,93,0.00,,,0.07,0.000000,,2013-10-07 13:21:00,
2013-10-07 05:52:00,37.0,35.0,-100.00,South,174,1.0,4.0,93,0.00,,,-99.99,0.000000,,2013-10-07 13:52:00,
2013-10-07 06:01:00,37.0,35.0,-100.00,South,174,1.0,4.0,93,0.00,,,-99.99,0.000000,,2013-10-07 14:01:00,
2013-10-07 06:11:00,37.0,35.0,-100.00,South,174,1.0,4.0,93,0.00,,,-99.99,0.000000,,2013-10-07 14:11:00,
2013-10-07 06:22:00,37.0,35.0,-100.00,South,174,1.0,4.0,93,0.00,,,-99.99,0.000000,,2013-10-07 14:22:00,
2013-10-07 06:52:00,37.0,35.0,-100.00,SSE,156,1.0,5.0,92,0.00,,,0.07,0.000000,,2013-10-07 14:52:00,
2013-10-07 07:01:00,37.0,35.0,-100.00,SSE,156,1.0,5.0,92,0.00,,,0.07,0.000000,,2013-10-07 15:01:00,
2013-10-07 07:11:00,37.0,35.0,-100.00,SSE,156,1.0,5.0,92,0.00,,,0.07,0.000000,,2013-10-07 15:11:00,
2013-10-07 07:21:00,37.0,35.0,-100.00,SSE,156,1.0,5.0,92,0.00,,,0.07,0.000000,,2013-10-07 15:21:00,
2013-10-07 07:53:00,36.0,34.0,-100.00,NE,35,1.0,3.0,92,0.00,,,0.07,0.000000,,2013-10-07 15:53:00,
2013-10-07 08:03:00,36.0,34.0,-100.00,NE,35,1.0,3.0,92,0.00,,,0.07,0.000000,,2013-10-07 16:03:00,
2013-10-07 08:13:00,36.0,34.0,-100.00,NE,35,1.0,3.0,92,0.00,,,0.07,0.000000,,2013-10-07 16:13:00,
2013-10-07 08:23:00,36.0,34.0,-100.00,NE,35,1.0,3.0,92,0.00,,,0.07,0.000000,,2013-10-07 16:23:00,
2013-10-07 08:53:00,31.0,29.0,-100.00,West,275,0.0,3.0,94,0.00,,,0.06,1.000000,,2013-10-07 16:53:00,
2013-10-07 09:03:00,31.0,29.0,-100.00,West,275,0.0,3.0,94,0.00,,,0.06,1.000000,,2013-10-07 17:03:00,
2013-10-07 09:12:00,31.0,29.0,-100.00,West,275,0.0,3.0,94,0.00,,,0.06,1.000000,,2013-10-07 17:12:00,
2013-10-07 09:22:00,31.0,29.0,-100.00,West,275,0.0,3.0,94,0.00,,,0.06,1.000000,,2013-10-07 17:22:00,
2013-10-07 09:52:00,32.0,31.0,-100.00,ENE,57,0.0,4.0,96,0.00,,,0.04,20.000000,,2013-10-07 17:52:00,
2013-10-07 10:02:00,32.0,31.0,-100.00,ENE,57,0.0,4.0,96,0.00,,,0.04,20.000000,,2013-10-07 18:02:00,
2013-10-07 10:12:00,32.0,31.0,-100.00,ENE,57,0.0,4.0,96,0.00,,,0.04,20.000000,,2013-10-07 18:12:00,
2013-10-07 10:22:00,32.0,31.0,-100.00,ENE,57,0.0,4.0,96,0.00,,,0.04,20.000000,,2013-10-07 18:22:00,
2013-10-07 10:52:00,37.0,35.0,-100.00,SW,226,0.0,3.0,94,0.00,,,0.03,48.000000,,2013-10-07 18:52:00,
2013-10-07 11:02:00,37.0,35.0,-100.00,SW,226,0.0,3.0,94,0.00,,,0.03,48.000000,,2013-10-07 19:02:00,
2013-10-07 11:11:00,37.0,35.0,-100.00,SW,226,0.0,3.0,94,0.00,,,0.03,48.000000,,2013-10-07 19:11:00,
2013-10-07 11:22:00,37.0,35.0,-100.00,SW,226,0.0,3.0,94,0.00,,,0.03,48.000000,,2013-10-07 19:22:00,
2013-10-07 11:53:00,41.0,38.0,-100.00,SSW,208,0.0,4.0,90,0.00,,,0.03,43.000000,,2013-10-07 19:53:00,
2013-10-07 12:02:00,41.0,38.0,-100.00,SSW,208,0.0,4.0,90,0.00,,,0.03,43.000000,,2013-10-07 20:02:00,
2013-10-07 12:12:00,41.0,38.0,-100.00,SSW,208,0.0,4.0,90,0.00,,,0.03,43.000000,,2013-10-07 20:12:00,
2013-10-07 12:22:00,41.0,38.0,-100.00,SSW,208,0.0,4.0,90,0.00,,,0.03,43.000000,,2013-10-07 20:22:00,
2013-10-07 12:52:00,44.0,41.0,-100.00,NNE,21,0.0,2.0,90,0.00,,,0.02,53.000000,,2013-10-07 20:52:00,
2013-10-07 13:02:00,44.0,41.0,-100.00,NNE,21,0.0,2.0,90,0.00,,,0.02,53.000000,,2013-10-07 21:02:00,
2013-10-07 13:12:00,44.0,41.0,-100.00,NNE,21,0.0,2.0,90,0.00,,,0.02,53.000000,,2013-10-07 21:12:00,
2013-10-07 13:23:00,44.0,41.0,-100.00,NNE,21,0.0,2.0,90,0.00,,,0.02,53.000000,,2013-10-07 21:23:00,
2013-10-07 13:55:00,44.0,41.0,-100.00,SSW,210,0.0,2.0,89,0.00,,,0.02,64.000000,,2013-10-07 21:55:00,
2013-10-07 14:04:00,44.0,41.0,-100.00,SSW,210,0.0,2.0,89,0.00,,,0.02,64.000000,,2013-10-07 22:04:00,
2013-10-07 14:13:00,44.0,41.0,-100.00,SSW,210,0.0,2.0,89,0.00,,,0.02,64.000000,,2013-10-07 22:13:00,
2013-10-07 14:24:00,44.0,41.0,-100.00,SSW,210,0.0,2.0,89,0.00,,,0.02,64.000000,,2013-10-07 22:24:00,
2013-10-07 14:53:00,49.0,41.0,-100.00,ESE,103,1.0,3.0,73,0.00,,,0.01,157.000000,,2013-10-07 22:53:00,
2013-10-07 15:02:00,49.0,41.0,-100.00,ESE,103,1.0,3.0,73,0.00,,,0.01,157.000000,,2013-10-07 23:02:00,
2013-10-07 15:12:00,49.0,41.0,-100.00,ESE,103,1.0,3.0,73,0.00,,,0.01,157.000000,,2013-10-07 23:12:00,
2013-10-07 15:22:00,49.0,41.0,-100.00,ESE,103,1.0,3.0,73,0.00,,,0.01,157.000000,,2013-10-07 23:22:00,
2013-10-07 15:52:00,49.0,40.0,-100.00,SE,128,0.0,3.0,72,0.00,,,0.01,121.000000,,2013-10-07 23:52:00,
2013-10-07 16:02:00,49.0,40.0,-100.00,SE,128,0.0,3.0,72,0.00,,,0.01,121.000000,,2013-10-08 00:02:00,
2013-10-07 16:11:00,49.0,40.0,-100.00,SE,128,0.0,3.0,72,0.00,,,0.01,121.000000,,2013-10-08 00:11:00,
2013-10-07 16:21:00,49.0,40.0,-100.00,SE,128,0.0,3.0,72,0.00,,,0.01,121.000000,,2013-10-08 00:21:00,
2013-10-07 16:52:00,49.0,41.0,-100.00,NE,52,3.0,6.0,73,0.00,,,0.00,115.000000,,2013-10-08 00:52:00,
2013-10-07 17:02:00,49.0,41.0,-100.00,NE,52,3.0,6.0,73,0.00,,,0.00,115.000000,,2013-10-08 01:02:00,
2013-10-07 17:12:00,49.0,41.0,-100.00,NE,52,3.0,6.0,73,0.00,,,0.00,115.000000,,2013-10-08 01:12:00,
2013-10-07 17:21:00,49.0,41.0,-100.00,NE,52,3.0,6.0,73,0.00,,,0.00,115.000000,,2013-10-08 01:21:00,
2013-10-07 17:52:00,48.0,40.0,-100.00,NE,54,2.0,7.0,75,0.00,,,0.00,77.000000,,2013-10-08 01:52:00,
2013-10-07 18:03:00,48.0,40.0,-100.00,NE,54,2.0,7.0,75,0.00,,,0.00,77.000000,,2013-10-08 02:03:00,
2013-10-07 18:11:00,48.0,40.0,-100.00,NE,54,2.0,7.0,75,0.00,,,0.00,77.000000,,2013-10-08 02:11:00,
2013-10-07 18:21:00,48.0,40.0,-100.00,NE,54,2.0,7.0,75,0.00,,,0.00,77.000000,,2013-10-08 02:21:00,
2013-10-07 18:52:00,47.0,41.0,-100.00,NE,46,3.0,5.0,80,0.00,,,0.00,40.000000,,2013-10-08 02:52:00,
2013-10-07 19:02:00,47.0,41.0,-100.00,NE,46,3.0,5.0,80,0.00,,,0.00,40.000000,,2013-10-08 03:02:00,
2013-10-07 19:11:00,47.0,41.0,-100.00,NE,46,3.0,5.0,80,0.00,,,0.00,40.000000,,2013-10-08 03:11:00,
2013-10-07 19:22:00,47.0,41.0,-100.00,NE,46,3.0,5.0,80,0.00,,,0.00,40.000000,,2013-10-08 03:22:00,
2013-10-07 19:55:00,45.0,41.0,-100.00,NNE,26,3.0,6.0,86,0.00,,,0.00,7.000000,,2013-10-08 03:55:00,
2013-10-07 20:04:00,45.0,41.0,-100.00,NNE,26,3.0,6.0,86,0.00,,,0.00,7.000000,,2013-10-08 04:04:00,
2013-10-07 20:14:00,45.0,41.0,-100.00,NNE,26,3.0,6.0,86,0.00,,,0.00,7.000000,,2013-10-08 04:14:00,
2013-10-07 20:23:00,45.0,41.0,-100.00,NNE,26,3.0,6.0,86,0.00,,,0.00,7.000000,,2013-10-08 04:23:00,
2013-10-07 20:53:00,44.0,41.0,-100.00,NNE,17,1.0,5.0,88,0.00,,,0.00,0.000000,,2013-10-08 04:53:00,
2013-10-07 21:03:00,44.0,41.0,-100.00,NNE,17,1.0,5.0,88,0.00,,,0.00,0.000000,,2013-10-08 05:03:00,
2013-10-07 21:13:00,44.0,41.0,-100.00,NNE,17,1.0,5.0,88,0.00,,,0.00,0.000000,,2013-10-08 05:13:00,
2013-10-07 21:22:00,44.0,41.0,-100.00,NNE,17,1.0,5.0,88,0.00,,,0.00,0.000000,,2013-10-08 05:22:00,
2013-10-07 21:53:00,43.0,40.0,-100.00,NE,34,3.0,5.0,90,0.00,,,0.00,0.000000,,2013-10-08 05:53:00,
2013-10-07 22:02:00,43.0,40.0,-100.00,NE,34,3.0,5.0,90,0.00,,,0.00,0.000000,,2013-10-08 06:02:00,
2013-10-07 22:12:00,43.0,40.0,-100.00,NE,34,3.0,5.0,90,0.00,,,0.00,0.000000,,2013-10-08 06:12:00,
2013-10-07 22:22:00,43.0,40.0,-100.00,NE,34,3.0,5.0,90,0.00,,,0.00,0.000000,,2013-10-08 06:22:00,
2013-10-07 22:52:00,42.0,40.0,-100.00,NE,41,1.0,6.0,94,0.03,,,0.03,0.000000,,2013-10-08 06:52:00,
2013-10-07 23:02:00,42.0,40.0,-100.00,NE,41,1.0,6.0,94,0.03,,,0.03,0.000000,,2013-10-08 07:02:00,
2013-10-07 23:11:00,42.0,40.0,-100.00,NE,41,1.0,6.0,94,0.03,,,0.03,0.000000,,2013-10-08 07:11:00,
2013-10-07 23:21:00,42.0,40.0,-100.00,NE,41,1.0,6.0,94,0.03,,,0.03,0.000000,,2013-10-08 07:21:00,
2013-10-07 23:52:00,42.0,41.0,-100.00,NNE,21,0.0,5.0,96,0.03,,,0.06,0.000000,,2013-10-08 07:52:00,